SL-16 DEB, 22618

Orbit data source: Space-Track

SL-16 DEB, 22618 is space debris in LEO originally from a launch on Fri, 26 Mar 1993 UTC launched from the Tyuratam Missile And Space Complex (TTMTR). Debris objects in space refer to the collection of defunct objects orbiting the Earth. Examples of debris include non-operational satellites, rocket bodies, and fragments generated from explosions, collisions, or faulty payload assembly.

Loading next visibility...
Identifier
22618, 1993-016AC
Orbit
LEO
Last TLE update
1 day ago
Origin
Manufacturer
Unknown
Mission
Spacecraft
Bus & Motor
Unknown
Mass
Unknown
Launch date (UTC)
1993-03-26 (32 years ago)
Launch vehicle
Unknown
Launch site
Tyuratam Missile And Space Complex (TTMTR)
Object type
Payload
Rocket body
Debris
Shape & HBR
Unknown
Radar Cross Section
Small (<0.1 m²)

Expand to show TLE details & history

TLE from 1 day ago
0 SL-16 DEB
1 22618U 93016AC  25185.61588480  .00000077  00000-0  99942-4 0  9990
2 22618  70.9927 274.0513 0154713  81.6710 280.1904 13.83337896626415
Epoch: 2025-07-04T14:46Z
TLE epoch observation values (Epoch: 2025-07-04T14:46:52.446Z)
Latitude
0.00001°
Longitude
129.46705°
Altitude
936.076 km
Speed
7.393 km/s
True Right ascension
18h 16m 12s
True Declination
0° 00' 00"
Sunlit
Object was in full shadow at epoch
Visualization orbit readout
Latitude
70.5993°
Longitude
-156.08317°
Altitude
850.809 km
Speed
7.491 km/s
Apparent Right ascension
18h 54m 03s
Apparent Declination
26° 45' 42"
Sunlit
Object is in daylight
Visualization observer readout
Local Sidereal Time
05:08:16
Azimuth
335.141° NNW
Elevation
-18.919°
Doppler factor
1
Orbital elements
Apogee altitude
1,063.404 km
Perigee altitude
836.651 km
Semi-major axis
7,328.164 km
Eccentricity
0.01547
Inclination
70.9927°
RAAN
274.0513°
Arg. of periapsis
81.671°
True anomaly
Unknown
Mean anomaly
280.1904°
Eccentric anomaly
Unknown
Mean motion
3.45979 °/min
Orbital period
104.05 mins
BSTAR
0.000099942
Loading maneuver chart data...
Loading SW <> Apogee altitude chart data...
Loading historical data...
Loading historical data...
Loading historical data...
Loading historical data...
Loading historical data...
Loading historical data...
Loading historical data...

SL-16 DEB Visibility forecast

Observer location: undefined°, undefined°

Span
Click to sort rows by Start time (UTC) header in descending order
Start Az.
Max El. time (UTC)
Max El. Az.
Max El.
End time (UTC)
End Az.
10 mins2025-07-05 17:22:56.035Z327.919° NNW2025-07-05 17:27:56.035Z251.635° W40.821°2025-07-05 17:32:56.035Z174.99° S
10 mins2025-07-06 06:48:56.035Z187.276° SSW2025-07-06 06:53:56.035Z86.672° E41.483°2025-07-06 06:58:56.035Z29.701° NE
6 mins2025-07-06 08:37:56.035Z276.063° WNW2025-07-06 08:39:56.035Z300.682° NW18.049°2025-07-06 08:43:56.035Z349.142° N
9 mins2025-07-06 15:55:56.035Z1.487° NNE2025-07-06 15:59:56.035Z61.496° ENE29.745°2025-07-06 16:04:56.035Z122.862° SE
|